Home > Weather > Sion > Past weeks

Flag for Switzerland Past Weather in Sion, Valais, Switzerland — Yesterday and Last 2 Weeks

Now
62 °F

Mild.


Feels Like: 62 °F
Forecast: 58 / 72 °F
Wind: 2 mph from South

Location: Sion

Current Time: May 29, 2016 at 2:02:43 AM

Latest Report: May 29, 2016 at 1:00 AM


Visibility: N/A

Pressure: 29.75 "Hg (28.01 "Hg at 514m altitude)

Humidity: 85%

Dew Point: 58 °F

Location of SionLocation

Past Weather in Sion — Graph

°F

Sion Temperature Yesterday

Maximum temperature yesterday: 78 °F (at 3:00 PM)
Minimum temperature yesterday: 59 °F (at 5:00 AM)
Average temperature yesterday: 68 °F

High & Low Weather Summary for the Past Weeks

 TemperatureHumidityPressure
High83 °F (May 27, 3:00 PM)93% (May 24, 3:00 AM)30.24 "Hg (May 24, 3:00 AM)
Low40 °F (May 16, 6:00 AM)21% (May 17, 3:00 PM)29.66 "Hg (May 14, 12:00 AM)
Average59 °F60%29.96 "Hg
* Reported May 14 12:00 AM — May 29 12:00 AM, Sion, Weather by CustomWeather, © 2016

Note: Actual official high and low records may vary slightly from our data, if they occured in-between our weather recording intervals... More about our weather records

Advertising

Sion Weather History for the Previous 24 Hours

Scroll right to see more
 ConditionsComfort  
Time TempWeatherWind HumidityBarometerVisibility
12:00 AM
Sun, May 29
64 °FMild.6 mph81%29.75 "HgN/A
11:40 PM
Sat, May 28
64 °FMild.8 mph82%29.75 "HgN/A
11:00 PM62 °FPassing clouds.1 mph85%29.75 "Hg9 mi
10:00 PM65 °FMild.2 mph77%29.74 "HgN/A
9:00 PM67 °FMild.2 mph84%29.73 "HgN/A
8:00 PM70 °FRain. Partly sunny.2 mph76%29.74 "Hg16 mi
7:00 PM71 °FMild.12 mph68%29.74 "HgN/A
6:00 PM75 °FMild.10 mph52%29.72 "HgN/A
5:00 PM76 °FPartly sunny.14 mph51%29.73 "Hg16 mi
4:00 PM78 °FWarm.15 mph48%29.74 "HgN/A
3:00 PM78 °FWarm.14 mph46%29.75 "HgN/A
2:00 PM76 °FPartly sunny.9 mph48%29.79 "Hg16 mi
1:00 PM76 °FMild.6 mph49%29.81 "HgN/A
12:00 PM74 °FMild.7 mph52%29.84 "HgN/A
11:00 AM71 °FMild.12 mph61%29.88 "HgN/A
10:00 AM69 °FMild.9 mph58%29.90 "HgN/A
9:00 AM66 °FMild.2 mph67%29.92 "HgN/A
8:00 AM64 °FOvercast.2 mph68%29.93 "Hg16 mi
7:00 AM61 °FCool.6 mph72%29.95 "HgN/A
6:00 AM60 °FCool.3 mph79%29.94 "HgN/A
5:00 AM59 °FThunderstorms. Overcast.2 mph89%29.95 "Hg12 mi
4:00 AM61 °FCool.2 mph86%29.96 "HgN/A
3:00 AM60 °FCool.3 mph89%29.96 "HgN/A
2:00 AM64 °FPassing clouds.1 mph65%29.93 "Hg12 mi
Weather by CustomWeather, © 2016

See weather overviewHow to use our weather pages